Flight Track Log - Related Links

Times and Time Zones

All times are in EDT time to prevent confusion due to time zone crossing. See the ASQ4538 flight status page for this flight to view local times or setup timezone preferences in your user account.

Time Position Orientation Groundspeed Altitude Reporting Facility
EDT Latitude Longitude Course Direction KTS MPH feet Rate Location/Type
10:36PM 42.8522 -85.4906 107° East 157 181 2,900  Level Cleveland Center
10:37PM 42.8342 -85.4097 107° East 217 250 5,000 2,350 Climbing Chicago Center
10:38PM 42.8206 -85.3081 100° East 265 305 7,600 2,683 Climbing Chicago Center
10:39PM 42.8231 -85.1969 88° East 289 333 10,500 2,390 Climbing Chicago Center
10:40PM 42.8200 -85.0819 92° East 310 357 12,500 1,918 Climbing Chicago Center
10:41PM 42.7814 -84.9356 110° East 342 394 14,400 1,770 Climbing Chicago Center
10:42PM 42.7196 -84.8681 107° East  Level FlightAware Approximate
10:42PM 42.7508 -84.8044 108° East 359 413 16,100  Level Chicago Center
10:43PM 42.7319 -84.6661 100° East 371 427 17,600 1,272 Climbing Chicago Center
10:45PM 42.6906 -84.3706 101° East 398 458 20,000 1,161 Climbing Chicago Center
10:46PM 42.6672 -84.2186 102° East 413 475 21,200 1,190 Climbing Cleveland Center
10:47PM 42.6431 -84.0628 102° East 417 480 22,500 1,415 Climbing Cleveland Center
10:49PM 42.6147 -83.8708 101° East 427 491 24,100 1,377 Climbing Cleveland Center
10:50PM 42.5908 -83.7092 101° East 430 495 25,300 1,220 Climbing Cleveland Center
10:51PM 42.5658 -83.5458 102° East 434 499 26,600 1,268 Climbing Cleveland Center
10:52PM 42.5411 -83.3828 102° East 435 501 27,900 1,180 Climbing Cleveland Center
10:53PM 42.5156 -83.2203 102° East 436 502 29,000 878 Climbing Cleveland Center
10:54PM 42.4886 -83.0531 102° East 448 516 29,700 878 Climbing Cleveland Center
10:55PM 42.4625 -82.8842 102° East 452 520 30,800 639 Climbing Cleveland Center
10:56PM 42.4353 -82.7133 102° East 460 529 31,000 98 Climbing Cleveland Center
10:57PM 42.4064 -82.5369 102° East 475 547 31,000  Level Cleveland Center
10:58PM 42.3772 -82.3619 103° East 476 548 31,000  Level Cleveland Center
10:59PM 42.3475 -82.1833 103° East 482 555 31,000  Level Cleveland Center
11:00PM 42.3142 -81.9811 103° East 482 555 31,000  Level Cleveland Center
11:01PM 42.2847 -81.8061 103° East 476 548 31,000  Level Cleveland Center
11:03PM 42.2258 -81.4653 103° East 460 529 31,000  Level Cleveland Center
11:04PM 42.1986 -81.3028 103° East 442 509 31,000 738 Level Cleveland Center
11:05PM 42.1703 -81.1464 104° East 428 493 32,500 976 Climbing Cleveland Center
11:06PM 42.1436 -80.9919 103° East 424 488 33,000 244 Climbing Cleveland Center
11:07PM 42.1150 -80.8353 104° East 423 487 33,000  Level Cleveland Center
11:08PM 42.0867 -80.6767 103° East 427 491 33,000  Level Cleveland Center
11:09PM 42.0581 -80.5197 104° East 428 493 33,000  Level Cleveland Center
11:10PM 42.0311 -80.3681 103° East 416 479 33,000  Level Cleveland Center
11:11PM 41.9928 -80.2189 109° East 419 482 33,000  Level Cleveland Center
11:12PM 41.9411 -80.0711 115° Southeast 430 495 33,000  Level Cleveland Center
11:13PM 41.8886 -79.9206 115° Southeast 437 503 33,000  Level Cleveland Center
11:14PM 41.8364 -79.7703 115° Southeast 438 504 33,000  Level Cleveland Center
11:15PM 41.7797 -79.6114 116° Southeast 439 505 33,000  Level Cleveland Center
11:16PM 41.6803 -79.4961 139° Southeast 473 544 33,000  Level Cleveland Center
11:17PM 41.5731 -79.3864 143° Southeast 483 556 33,000  Level Cleveland Center
11:18PM 41.4689 -79.2789 142° Southeast 480 552 33,000  Level Cleveland Center
11:19PM 41.4231 -79.1200 111° Southeast 468 539 33,000  Level Cleveland Center
11:20PM 41.4194 -78.9583 92° East 445 512 33,000 -393 Level Cleveland Center
11:21PM 41.4139 -78.7939 93° East 444 511 32,200 -934 Descending Cleveland Center
11:22PM 41.4092 -78.6303 92° East 444 511 31,100 -590 Descending Cleveland Center
11:23PM 41.4042 -78.4658 92° East 443 510 31,000 -49 Descending Cleveland Center
11:24PM 41.3989 -78.3025 92° East 442 509 31,000  Level Cleveland Center
11:25PM 41.3936 -78.1381 92° East 443 510 31,000  Level Cleveland Center
11:26PM 41.3864 -78.0050 94° East 452 520 31,000  Level New York Center
11:27PM 41.3817 -77.8414 92° East 444 511 31,000  Level New York Center
11:28PM 41.3747 -77.6775 93° East 444 511 31,000  Level New York Center
11:29PM 41.3631 -77.5158 95° East 449 517 31,000  Level New York Center
11:30PM 41.3389 -77.3533 101° East 444 511 31,000 -250 Level New York Center
11:31PM 41.3167 -77.1908 100° East 444 511 30,500 -1,200 Descending New York Center
11:32PM 41.2939 -77.0311 101° East 444 511 28,600 -1,900 Descending New York Center
11:33PM 41.2686 -76.8769 102° East 433 498 26,700 -1,950 Descending New York Center
11:34PM 41.2467 -76.7342 102° East 418 481 24,700 -1,750 Descending New York Center
11:35PM 41.2267 -76.5917 101° East 399 459 23,200 -1,550 Descending New York Center
11:36PM 41.2042 -76.4519 102° East 394 453 21,600 -1,600 Descending New York Center
11:37PM 41.1800 -76.3036 102° East 384 442 20,000 -1,200 Descending New York Center
11:38PM 41.1642 -76.1950 101° East 379 436 19,200 -500 Descending New York Center
11:39PM 41.1381 -76.0386 102° East 367 422 19,000 -100 Descending New York Center
11:40PM 41.1058 -75.9150 109° East 362 417 19,000 -600 Level New York Center
11:41PM 41.0697 -75.7856 110° East 362 417 17,800 -1,400 Descending New York Center
11:42PM 41.0389 -75.6758 110° East 355 409 16,200 -1,850 Descending New York Center
11:43PM 41.0006 -75.5439 111° Southeast 350 403 14,100 -1,750 Descending New York Center
11:44PM 40.9733 -75.4403 109° East 344 396 12,700 -1,500 Descending New York Center
11:45PM 40.9367 -75.3142 111° Southeast 339 390 11,100 -1,300 Descending New York Center
11:46PM 40.9072 -75.2106 111° Southeast 315 362 10,100 -1,000 Descending New York Center
11:47PM 40.8817 -75.1131 109° East 289 333 9,100 -550 Descending New York Center
11:48PM 40.8578 -75.0264 110° East 274 315 9,000 -50 Descending New York Center
11:49PM 40.8736 -74.9367 77° East 252 290 9,000  Level New York Center
11:50PM 40.9142 -74.8486 59° Northeast 247 284 9,000  Level New York Center
11:51PM 40.9456 -74.7792 59° Northeast 229 264 9,000 -600 Level New York Center
11:52PM 40.9769 -74.7122 58° Northeast 219 252 7,800 -900 Descending New York Center
11:53PM 41.0086 -74.6400 60° Northeast 213 245 7,200 -400 Descending New York Center
11:54PM 41.0400 -74.5756 57° Northeast 208 239 7,000 -550 Descending New York Center
11:55PM 41.0486 -74.4992 81° East 208 239 6,100 -450 Descending New York Center
11:56PM 40.9961 -74.5156 193° South 117 135 6,100 -50 Level New York Center
11:57PM 40.9544 -74.5792 229° Southwest 187 215 6,000 -50 Descending New York Center
11:58PM 40.8928 -74.6114 202° Southwest 235 270 6,000  Level New York Center
11:59PM 40.8333 -74.6167 184° South 241 277 6,000  Level New York TRACON
12:00AM 40.7667 -74.6333 191° South 238 274 6,000  Level New York TRACON
12:01AM 40.7000 -74.6500 191° South 237 273 6,000  Level New York TRACON
12:02AM 40.6333 -74.6667 191° South 237 273 6,000  Level New York TRACON
12:03AM 40.5667 -74.6833 191° South 237 273 6,000 -400 Level New York TRACON
12:04AM 40.5167 -74.7000 194° South 219 252 5,200 -450 Descending New York TRACON
12:05AM 40.4667 -74.7000 180° South 204 235 5,100 -474 Descending New York TRACON
12:06AM 40.4167 -74.6667 153° Southeast 191 220 4,300 -947 Descending New York TRACON
12:07AM 40.3833 -74.6167 131° Southeast 185 213 3,300 -619 Descending New York TRACON
12:08AM 40.3667 -74.5667 114° Southeast 171 197 3,000 -143 Descending New York TRACON
12:09AM 40.3500 -74.5000 108° East 171 197 3,000  Level New York TRACON
12:10AM 40.3333 -74.4500 114° Southeast 172 198 3,000  Level New York TRACON
12:11AM 40.3167 -74.3833 108° East 176 203 3,000  Level New York TRACON
12:12AM 40.3333 -74.3500 57° Northeast 140 161 3,000  Level New York TRACON
12:13AM 40.3667 -74.3500 360° North 136 157 3,000  Level New York TRACON
12:14AM 40.4167 -74.3500 360° North 138 159 3,000  Level New York TRACON
12:15AM 40.4500 -74.3167 37° Northeast 140 161 3,000  Level New York TRACON
12:16AM 40.4833 -74.3000 21° North 137 158 3,000  Level New York TRACON
12:17AM 40.5167 -74.2833 21° North 132 152 3,000  Level New York TRACON
12:18AM 40.5500 -74.2667 21° North 134 154 3,000 -316 Level New York TRACON
12:19AM 40.5833 -74.2333 37° Northeast 134 154 2,400 -619 Descending New York TRACON
12:20AM 40.6167 -74.2167 21° North 117 135 1,700 -619 Descending New York TRACON
12:21AM 40.6333 -74.2000 37° Northeast 105 121 1,100 -667 Descending New York TRACON
12:22AM 40.6667 -74.1833 21° North 110 127 300 -727 Descending New York TRACON

Login

Don't have an account? Register now (free) for customized features, flight alerts, and more!